Time,TemperatureF,DewpointF,PressureIn,WindDirection,WindDirectionDegrees,WindSpeedMPH,WindSpeedGustMPH,Humidity,HourlyPrecipIn,Conditions,Clouds,dailyrainin,SoftwareType,DateUTC
2013-01-21 00:00:00,73.0,66.0,30.10,ENE,70,14.0,-999.0,78,-99.99,,,-99.99,,2013-01-21 00:00:00,
2013-01-21 00:22:00,73.0,66.0,30.10,ENE,70,14.0,-999.0,78,-99.99,,,-99.99,,2013-01-21 00:22:00,
2013-01-21 00:32:00,73.0,66.0,30.10,ENE,70,14.0,-999.0,78,-99.99,,,-99.99,,2013-01-21 00:32:00,
2013-01-21 00:42:00,73.0,66.0,30.10,ENE,70,14.0,-999.0,78,-99.99,,,-99.99,,2013-01-21 00:42:00,
2013-01-21 00:52:00,73.0,66.0,30.10,ENE,70,14.0,-999.0,78,-99.99,,,-99.99,,2013-01-21 00:52:00,
2013-01-21 01:00:00,73.0,-99.9,30.09,ENE,70,15.0,-999.0,-999,-99.99,,,-99.99,,2013-01-21 01:00:00,
2013-01-21 01:23:00,73.0,-99.9,30.09,ENE,70,15.0,-999.0,-999,-99.99,,,-99.99,,2013-01-21 01:23:00,
2013-01-21 01:33:00,73.0,-99.9,30.09,ENE,70,15.0,-999.0,-999,-99.99,,,-99.99,,2013-01-21 01:33:00,
2013-01-21 01:44:00,73.0,-99.9,30.09,ENE,70,15.0,-999.0,-999,-99.99,,,-99.99,,2013-01-21 01:44:00,
2013-01-21 01:53:00,73.0,-99.9,30.09,ENE,70,15.0,-999.0,-999,-99.99,,,-99.99,,2013-01-21 01:53:00,
2013-01-21 02:00:00,73.0,-99.9,30.08,East,80,11.0,-999.0,-999,-99.99,,,-99.99,,2013-01-21 02:00:00,
2013-01-21 02:23:00,73.0,-99.9,30.08,East,80,11.0,-999.0,-999,-99.99,,,-99.99,,2013-01-21 02:23:00,
2013-01-21 02:34:00,73.0,-99.9,30.08,East,80,11.0,-999.0,-999,-99.99,,,-99.99,,2013-01-21 02:34:00,
2013-01-21 02:43:00,73.0,-99.9,30.08,East,80,11.0,-999.0,-999,-99.99,,,-99.99,,2013-01-21 02:43:00,
2013-01-21 02:53:00,73.0,-99.9,30.08,East,80,11.0,-999.0,-999,-99.99,,,-99.99,,2013-01-21 02:53:00,
2013-01-21 03:00:00,73.0,-99.9,30.07,East,80,14.0,-999.0,-999,-99.99,,,-99.99,,2013-01-21 03:00:00,
2013-01-21 03:23:00,73.0,-99.9,30.07,East,80,14.0,-999.0,-999,-99.99,,,-99.99,,2013-01-21 03:23:00,
2013-01-21 03:33:00,73.0,-99.9,30.07,East,80,14.0,-999.0,-999,-99.99,,,-99.99,,2013-01-21 03:33:00,
2013-01-21 03:44:00,73.0,-99.9,30.07,East,80,14.0,-999.0,-999,-99.99,,,-99.99,,2013-01-21 03:44:00,
2013-01-21 03:54:00,73.0,-99.9,30.07,East,80,14.0,-999.0,-999,-99.99,,,-99.99,,2013-01-21 03:54:00,
2013-01-21 04:00:00,72.0,-99.9,30.06,NE,50,10.0,-999.0,-999,-99.99,,,-99.99,,2013-01-21 04:00:00,
2013-01-21 04:23:00,72.0,-99.9,30.06,NE,50,10.0,-999.0,-999,-99.99,,,-99.99,,2013-01-21 04:23:00,
2013-01-21 04:33:00,72.0,-99.9,30.06,NE,50,10.0,-999.0,-999,-99.99,,,-99.99,,2013-01-21 04:33:00,
2013-01-21 04:43:00,72.0,-99.9,30.06,NE,50,10.0,-999.0,-999,-99.99,,,-99.99,,2013-01-21 04:43:00,
2013-01-21 04:53:00,72.0,-99.9,30.06,NE,50,10.0,-999.0,-999,-99.99,,,-99.99,,2013-01-21 04:53:00,
2013-01-21 05:00:00,72.0,-99.9,30.05,NE,50,10.0,-999.0,-999,-99.99,,,-99.99,,2013-01-21 05:00:00,
2013-01-21 05:23:00,72.0,-99.9,30.05,NE,50,10.0,-999.0,-999,-99.99,,,-99.99,,2013-01-21 05:23:00,
2013-01-21 05:34:00,72.0,-99.9,30.05,NE,50,10.0,-999.0,-999,-99.99,,,-99.99,,2013-01-21 05:34:00,
2013-01-21 05:43:00,72.0,-99.9,30.05,NE,50,10.0,-999.0,-999,-99.99,,,-99.99,,2013-01-21 05:43:00,
2013-01-21 05:53:00,72.0,-99.9,30.05,NE,50,10.0,-999.0,-999,-99.99,,,-99.99,,2013-01-21 05:53:00,
2013-01-21 06:00:00,72.0,67.0,30.05,NNE,20,8.0,-999.0,84,-99.99,,,-99.99,,2013-01-21 06:00:00,
2013-01-21 06:23:00,71.0,-99.9,30.05,North,360,9.0,-999.0,-999,-99.99,,,-99.99,,2013-01-21 06:23:00,
2013-01-21 06:32:00,72.0,67.0,30.05,NNE,20,8.0,-999.0,84,-99.99,,,-99.99,,2013-01-21 06:32:00,
2013-01-21 06:42:00,72.0,67.0,30.05,NNE,20,8.0,-999.0,84,-99.99,,,-99.99,,2013-01-21 06:42:00,
2013-01-21 06:52:00,72.0,67.0,30.05,NNE,20,8.0,-999.0,84,-99.99,,,-99.99,,2013-01-21 06:52:00,
2013-01-21 07:00:00,71.0,-99.9,30.05,ENE,70,9.0,-999.0,-999,-99.99,,,-99.99,,2013-01-21 07:00:00,
2013-01-21 07:23:00,71.0,-99.9,30.05,ENE,70,9.0,-999.0,-999,-99.99,,,-99.99,,2013-01-21 07:23:00,
2013-01-21 07:33:00,71.0,-99.9,30.05,ENE,70,9.0,-999.0,-999,-99.99,,,-99.99,,2013-01-21 07:33:00,
2013-01-21 07:43:00,71.0,-99.9,30.05,ENE,70,9.0,-999.0,-999,-99.99,,,-99.99,,2013-01-21 07:43:00,
2013-01-21 07:53:00,71.0,-99.9,30.05,ENE,70,9.0,-999.0,-999,-99.99,,,-99.99,,2013-01-21 07:53:00,
2013-01-21 08:00:00,72.0,-99.9,30.06,East,80,10.0,-999.0,-999,-99.99,,,-99.99,,2013-01-21 08:00:00,
2013-01-21 08:23:00,72.0,-99.9,30.06,East,80,10.0,-999.0,-999,-99.99,,,-99.99,,2013-01-21 08:23:00,
2013-01-21 08:33:00,72.0,-99.9,30.06,East,80,10.0,-999.0,-999,-99.99,,,-99.99,,2013-01-21 08:33:00,
2013-01-21 08:43:00,72.0,-99.9,30.06,East,80,10.0,-999.0,-999,-99.99,,,-99.99,,2013-01-21 08:43:00,
2013-01-21 08:53:00,72.0,-99.9,30.06,East,80,10.0,-999.0,-999,-99.99,,,-99.99,,2013-01-21 08:53:00,
2013-01-21 09:00:00,70.0,-99.9,30.06,NNE,20,18.0,-999.0,-999,-99.99,,,-99.99,,2013-01-21 09:00:00,
2013-01-21 09:23:00,70.0,-99.9,30.06,NNE,20,18.0,-999.0,-999,-99.99,,,-99.99,,2013-01-21 09:23:00,
2013-01-21 09:33:00,70.0,-99.9,30.06,NNE,20,18.0,-999.0,-999,-99.99,,,-99.99,,2013-01-21 09:33:00,
2013-01-21 09:43:00,70.0,-99.9,30.06,NNE,20,18.0,-999.0,-999,-99.99,,,-99.99,,2013-01-21 09:43:00,
2013-01-21 09:53:00,70.0,-99.9,30.06,NNE,20,18.0,-999.0,-999,-99.99,,,-99.99,,2013-01-21 09:53:00,
2013-01-21 10:00:00,71.0,-99.9,30.07,NE,50,17.0,-999.0,-999,-99.99,,,-99.99,,2013-01-21 10:00:00,
2013-01-21 10:23:00,71.0,-99.9,30.07,NE,50,17.0,-999.0,-999,-99.99,,,-99.99,,2013-01-21 10:23:00,
2013-01-21 10:33:00,71.0,-99.9,30.07,NE,50,17.0,-999.0,-999,-99.99,,,-99.99,,2013-01-21 10:33:00,
2013-01-21 10:43:00,71.0,-99.9,30.07,NE,50,17.0,-999.0,-999,-99.99,,,-99.99,,2013-01-21 10:43:00,
2013-01-21 10:53:00,71.0,-99.9,30.07,NE,50,17.0,-999.0,-999,-99.99,,,-99.99,,2013-01-21 10:53:00,
2013-01-21 11:00:00,71.0,-99.9,30.09,ENE,60,15.0,-999.0,-999,-99.99,,,-99.99,,2013-01-21 11:00:00,
2013-01-21 11:23:00,71.0,-99.9,30.09,ENE,60,15.0,-999.0,-999,-99.99,,,-99.99,,2013-01-21 11:23:00,
2013-01-21 11:33:00,71.0,-99.9,30.09,ENE,60,15.0,-999.0,-999,-99.99,,,-99.99,,2013-01-21 11:33:00,
2013-01-21 11:43:00,71.0,-99.9,30.09,ENE,60,15.0,-999.0,-999,-99.99,,,-99.99,,2013-01-21 11:43:00,
2013-01-21 11:53:00,71.0,-99.9,30.09,ENE,60,15.0,-999.0,-999,-99.99,,,-99.99,,2013-01-21 11:53:00,
2013-01-21 12:00:00,70.0,-99.9,30.09,ENE,70,14.0,-999.0,-999,-99.99,,,-99.99,,2013-01-21 12:00:00,
2013-01-21 12:23:00,70.0,-99.9,30.09,ENE,70,14.0,-999.0,-999,-99.99,,,-99.99,,2013-01-21 12:23:00,
2013-01-21 12:33:00,70.0,-99.9,30.09,ENE,70,14.0,-999.0,-999,-99.99,,,-99.99,,2013-01-21 12:33:00,
2013-01-21 12:43:00,70.0,-99.9,30.09,ENE,70,14.0,-999.0,-999,-99.99,,,-99.99,,2013-01-21 12:43:00,
2013-01-21 12:53:00,70.0,-99.9,30.09,ENE,70,14.0,-999.0,-999,-99.99,,,-99.99,,2013-01-21 12:53:00,
2013-01-21 13:00:00,71.0,-99.9,30.08,NE,50,14.0,-999.0,-999,-99.99,,,-99.99,,2013-01-21 13:00:00,
2013-01-21 13:23:00,71.0,-99.9,30.08,NE,50,14.0,-999.0,-999,-99.99,,,-99.99,,2013-01-21 13:23:00,
2013-01-21 13:33:00,71.0,-99.9,30.08,NE,50,14.0,-999.0,-999,-99.99,,,-99.99,,2013-01-21 13:33:00,
2013-01-21 13:43:00,71.0,-99.9,30.08,NE,50,14.0,-999.0,-999,-99.99,,,-99.99,,2013-01-21 13:43:00,
2013-01-21 13:54:00,71.0,-99.9,30.08,NE,50,14.0,-999.0,-999,-99.99,,,-99.99,,2013-01-21 13:54:00,
2013-01-21 14:00:00,71.0,-99.9,30.05,NE,40,11.0,-999.0,-999,-99.99,,,-99.99,,2013-01-21 14:00:00,
2013-01-21 14:23:00,71.0,-99.9,30.05,NE,40,11.0,-999.0,-999,-99.99,,,-99.99,,2013-01-21 14:23:00,
2013-01-21 14:33:00,71.0,-99.9,30.05,NE,40,11.0,-999.0,-999,-99.99,,,-99.99,,2013-01-21 14:33:00,
2013-01-21 14:43:00,71.0,-99.9,30.05,NE,40,11.0,-999.0,-999,-99.99,,,-99.99,,2013-01-21 14:43:00,
2013-01-21 14:54:00,71.0,-99.9,30.05,NE,40,11.0,-999.0,-999,-99.99,,,-99.99,,2013-01-21 14:54:00,
2013-01-21 15:00:00,71.0,-99.9,30.03,NNE,30,14.0,-999.0,-999,-99.99,,,-99.99,,2013-01-21 15:00:00,
2013-01-21 15:23:00,71.0,-99.9,30.03,NNE,30,14.0,-999.0,-999,-99.99,,,-99.99,,2013-01-21 15:23:00,
2013-01-21 15:33:00,71.0,-99.9,30.03,NNE,30,14.0,-999.0,-999,-99.99,,,-99.99,,2013-01-21 15:33:00,
2013-01-21 15:43:00,71.0,-99.9,30.03,NNE,30,14.0,-999.0,-999,-99.99,,,-99.99,,2013-01-21 15:43:00,
2013-01-21 15:53:00,71.0,-99.9,30.03,NNE,30,14.0,-999.0,-999,-99.99,,,-99.99,,2013-01-21 15:53:00,
2013-01-21 16:00:00,71.0,-99.9,30.01,NNE,30,14.0,-999.0,-999,-99.99,,,-99.99,,2013-01-21 16:00:00,
2013-01-21 16:24:00,71.0,-99.9,30.01,NNE,30,14.0,-999.0,-999,-99.99,,,-99.99,,2013-01-21 16:24:00,
2013-01-21 16:34:00,71.0,-99.9,30.01,NNE,30,14.0,-999.0,-999,-99.99,,,-99.99,,2013-01-21 16:34:00,
2013-01-21 16:44:00,71.0,-99.9,30.01,NNE,30,14.0,-999.0,-999,-99.99,,,-99.99,,2013-01-21 16:44:00,
2013-01-21 16:53:00,71.0,-99.9,30.01,NNE,30,14.0,-999.0,-999,-99.99,,,-99.99,,2013-01-21 16:53:00,
2013-01-21 17:00:00,71.0,-99.9,30.01,NE,40,10.0,-999.0,-999,-99.99,,,-99.99,,2013-01-21 17:00:00,
2013-01-21 17:23:00,71.0,-99.9,30.01,NE,40,10.0,-999.0,-999,-99.99,,,-99.99,,2013-01-21 17:23:00,
2013-01-21 17:43:00,71.0,-99.9,30.01,NE,40,10.0,-999.0,-999,-99.99,,,-99.99,,2013-01-21 17:43:00,
2013-01-21 17:53:00,71.0,-99.9,30.01,NE,40,10.0,-999.0,-999,-99.99,,,-99.99,,2013-01-21 17:53:00,
2013-01-21 18:00:00,71.0,65.0,30.01,ENE,70,14.0,-999.0,83,-99.99,,,-99.99,,2013-01-21 18:00:00,
2013-01-21 18:22:00,71.0,65.0,30.01,ENE,70,14.0,-999.0,83,-99.99,,,-99.99,,2013-01-21 18:22:00,
2013-01-21 18:32:00,71.0,65.0,30.01,ENE,70,14.0,-999.0,83,-99.99,,,-99.99,,2013-01-21 18:32:00,
2013-01-21 18:42:00,71.0,65.0,30.01,ENE,70,14.0,-999.0,83,-99.99,,,-99.99,,2013-01-21 18:42:00,
2013-01-21 18:52:00,71.0,65.0,30.01,ENE,70,14.0,-999.0,83,-99.99,,,-99.99,,2013-01-21 18:52:00,
2013-01-21 19:00:00,70.0,-99.9,30.02,ENE,60,11.0,-999.0,-999,-99.99,,,-99.99,,2013-01-21 19:00:00,
2013-01-21 19:23:00,70.0,-99.9,30.02,ENE,60,11.0,-999.0,-999,-99.99,,,-99.99,,2013-01-21 19:23:00,
2013-01-21 19:33:00,70.0,-99.9,30.02,ENE,60,11.0,-999.0,-999,-99.99,,,-99.99,,2013-01-21 19:33:00,
2013-01-21 19:43:00,70.0,-99.9,30.02,ENE,60,11.0,-999.0,-999,-99.99,,,-99.99,,2013-01-21 19:43:00,
2013-01-21 19:53:00,70.0,-99.9,30.02,ENE,60,11.0,-999.0,-999,-99.99,,,-99.99,,2013-01-21 19:53:00,
2013-01-21 20:00:00,71.0,-99.9,30.03,NE,50,13.0,-999.0,-999,-99.99,,,-99.99,,2013-01-21 20:00:00,
2013-01-21 20:23:00,71.0,-99.9,30.03,NE,50,13.0,-999.0,-999,-99.99,,,-99.99,,2013-01-21 20:23:00,
2013-01-21 20:33:00,71.0,-99.9,30.03,NE,50,13.0,-999.0,-999,-99.99,,,-99.99,,2013-01-21 20:33:00,
2013-01-21 20:43:00,71.0,-99.9,30.03,NE,50,13.0,-999.0,-999,-99.99,,,-99.99,,2013-01-21 20:43:00,
2013-01-21 20:53:00,71.0,-99.9,30.03,NE,50,13.0,-999.0,-999,-99.99,,,-99.99,,2013-01-21 20:53:00,
2013-01-21 21:00:00,71.0,-99.9,30.05,NE,50,14.0,-999.0,-999,-99.99,,,-99.99,,2013-01-21 21:00:00,
2013-01-21 21:23:00,71.0,-99.9,30.05,NE,50,14.0,-999.0,-999,-99.99,,,-99.99,,2013-01-21 21:23:00,
2013-01-21 21:33:00,71.0,-99.9,30.05,NE,50,14.0,-999.0,-999,-99.99,,,-99.99,,2013-01-21 21:33:00,
2013-01-21 21:44:00,71.0,-99.9,30.05,NE,50,14.0,-999.0,-999,-99.99,,,-99.99,,2013-01-21 21:44:00,
2013-01-21 21:54:00,71.0,-99.9,30.05,NE,50,14.0,-999.0,-999,-99.99,,,-99.99,,2013-01-21 21:54:00,
2013-01-21 22:00:00,71.0,-99.9,30.06,ENE,60,16.0,-999.0,-999,-99.99,,,-99.99,,2013-01-21 22:00:00,
2013-01-21 22:24:00,71.0,-99.9,30.06,ENE,60,16.0,-999.0,-999,-99.99,,,-99.99,,2013-01-21 22:24:00,
2013-01-21 22:33:00,71.0,-99.9,30.06,ENE,60,16.0,-999.0,-999,-99.99,,,-99.99,,2013-01-21 22:33:00,
2013-01-21 22:43:00,71.0,-99.9,30.06,ENE,60,16.0,-999.0,-999,-99.99,,,-99.99,,2013-01-21 22:43:00,
2013-01-21 22:53:00,71.0,-99.9,30.06,ENE,60,16.0,-999.0,-999,-99.99,,,-99.99,,2013-01-21 22:53:00,
2013-01-21 23:00:00,71.0,-99.9,30.08,ENE,70,14.0,-999.0,-999,-99.99,,,-99.99,,2013-01-21 23:00:00,
2013-01-21 23:23:00,71.0,-99.9,30.08,ENE,70,14.0,-999.0,-999,-99.99,,,-99.99,,2013-01-21 23:23:00,
2013-01-21 23:33:00,71.0,-99.9,30.08,ENE,70,14.0,-999.0,-999,-99.99,,,-99.99,,2013-01-21 23:33:00,
2013-01-21 23:43:00,71.0,-99.9,30.08,ENE,70,14.0,-999.0,-999,-99.99,,,-99.99,,2013-01-21 23:43:00,
2013-01-21 23:53:00,71.0,-99.9,30.08,ENE,70,14.0,-999.0,-999,-99.99,,,-99.99,,2013-01-21 23:53:00,